Regional Weather Roundup
Issued by NWS Mt. Holly, NJ

Home | Current Version | Previous Version | Text Only | Print | Product List | Glossary On
Versions: 1 2 3 4 5 6 7 8 9 10 11 12 13 14 15 16 17 18 19 20 21 22 23 24 25 26 27 28 29 30 31 32 33 34 35 36 37 38 39 40 41 42 43 44 45 46 47 48 49 50
000
ASUS41 KPHI 200612
RWRPHI

REGIONAL WEATHER ROUNDUP
NATIONAL WEATHER SERVICE MOUNT HOLLY NJ
100 AM EST MON FEB 20 2017

NOTE:  "FAIR" INDICATES FEW OR NO CLOUDS BELOW 12,000 FEET WITH NO
SIGNIFICANT WEATHER AND/OR OBSTRUCTIONS TO VISIBILITY.

 * = STATION DOES NOT REPORT PRECIPITATION (E.G. RAIN, SNOW, ETC.)
        OR FOG.

NJZ015>026-200700-
SOUTHERN NEW JERSEY

CITY           SKY/WX    TMP DP  RH WIND       PRES   REMARKS
POMONA         CLEAR     44  33  65 N5        30.01R
6HR MIN TEMP:  43; 6HR MAX TEMP:  61;

WILDWOOD*      CLEAR     53  41  63 W7        30.01R
MILLVILLE      CLEAR     41  36  82 CALM      30.01R
WRIGHTSTOWN    CLEAR     47  32  57 N8        29.99R
MOUNT HOLLY    CLEAR     49  32  52 N9        30.01R
TRENTON        CLEAR     47  32  56 N6        30.02R
6HR MIN TEMP:  45; 6HR MAX TEMP:  60;


$$
NJZ001>014-200700-
NORTHERN NEW JERSEY

CITY           SKY/WX    TMP DP  RH WIND       PRES   REMARKS
SUSSEX         CLEAR     44  32  62 NW3       30.02R
ANDOVER*         N/A     34  30  85 SW5       30.03R WCI  30
MORRISTOWN     CLEAR     48  34  57 NW6       30.03R
NEWARK         PTCLDY    52  33  48 NW21      30.01R
TETERBORO      CLEAR     49  33  54 NW6       30.00R
CALDWELL       CLEAR     50  33  52 NW6       30.03R
SOMERVILLE     CLEAR     33  29  85 CALM      30.01R
ALLAIRE*       CLEAR     49  33  54 N6        30.01R
TOMS RIVER*    CLEAR     47  33  58 N7        30.01R

$$
PAZ043-044-047-054-055-060>062-066>071-200700-
EASTERN PENNSYLVANIA

CITY           SKY/WX    TMP DP  RH WIND       PRES   REMARKS
PHILADELPHIA   CLEAR     52  33  48 N6        30.02R
6HR MIN TEMP:  51; 6HR MAX TEMP:  65;

NORTH PHILA    CLEAR     47  34  60 N8        30.03R
BLUE BELL*     CLEAR     48  32  53 N5        30.02R
DOYLESTOWN     CLEAR     52  32  46 CALM      30.02R
QUAKERTOWN*    CLEAR     50  32  50 N8        30.03S
PERKASIE*      FAIR      48  30  49 N6        30.03S
POTTSTOWN      CLEAR     40  31  70 NW5       30.04R
LANCASTER      CLEAR     50  33  52 NW8       30.04R
COATESVILLE    CLEAR     50  32  50 NW3       30.04R
READING        CLEAR     50  29  44 NW6       30.04R
6HR MIN TEMP:  49; 6HR MAX TEMP:  59;

ALLENTOWN      CLEAR     51  31  46 NW14      30.03R
6HR MIN TEMP:  45; 6HR MAX TEMP:  54;

MOUNT POCONO   CLEAR     39  32  76 NW10G21   30.00R WCI  32
6HR MIN TEMP:  39; 6HR MAX TEMP:  48;

HAZLETON       CLEAR     45  32  61 NW12G20   30.06R
LEHIGHTON      FAIR      34  30  86 CALM      30.05R
WILKES BARRE   CLEAR     42  33  70 VRB5      30.06R

$$
DEZALL-MDZ008-012-015-019-020-200700-
DELAWARE AND EASTERN MARYLAND

CITY           SKY/WX    TMP DP  RH WIND       PRES   REMARKS
WILMINGTON     CLEAR     49  34  56 NW8       30.02R
6HR MIN TEMP:  48; 6HR MAX TEMP:  61;

DOVER          CLEAR     50  42  74 W6        30.01R
GEORGETOWN     CLEAR     53  41  63 W5        30.03R
6HR MIN TEMP:  53; 6HR MAX TEMP:  60;

EASTON         CLEAR     51  40  65 NW6       30.08R
ABERDEEN       CLEAR     53  37  55 CALM      30.04R
PATUXENT       CLEAR     53  42  66 W9        30.05R
OCEAN CITY     PTCLDY    54  40  59 NW7       30.02R
WALLOPS ISLAND CLEAR     50  41  71 NW6       30.03S
CAMBRIDGE      CLEAR     50  41  71 W6        30.05R
SALISBURY      CLEAR     54  41  61 NW6       30.03R

$$
PAZ001-021-NYZ056-072-MDZ011-DCZ001-200700-
OTHER NEARBY LOCATIONS

CITY           SKY/WX    TMP DP  RH WIND       PRES   REMARKS
HARRISBURG     CLEAR     45  33  63 NW3       30.05R
STATE COLLEGE  PTCLDY    46  31  56 CALM      30.11R
WILLIAMSPORT   CLEAR     48  33  56 NW10      30.09R
BINGHAMTON     CLEAR     35  29  78 NW9       30.04R WCI  28
NEW YORK CITY  CLEAR     52  33  48 NW6       30.02R
BALTIMORE      CLEAR     48  42  80 W8        30.04R
WASHINGTON DC  MOCLDY    52  42  69 W5        30.07R

$$



USA.gov is the U.S. government's official web portal to all federal, state and local government web resources and services.